STARLINK-1277, 45369

Orbit data source: Space-Track

STARLINK-1277, 45369 is a payload satellite owned by SpaceX/Seattle (US) in LEO that was launched on Wed, 18 Mar 2020 UTC via an FALCON 9 launch vehicle from the Air Force Eastern Test Range (AFETR). Payload-class satellites include a variety of spacecraft equipped with specific instruments for various scientific and technological missions. These include communications satellites like Starlink; space stations such as the ISS; scientific satellites like the Hubble; Earth observation satellites from companies like Planet Labs, Umbra, and HawkEye 360; GPS; miniature CubeSats for education and research; and military/defense satellites.

Loading next visibility...
Identifier
45369, 2020-019K
Orbit
LEO
Country
Flag of USUS
Related business
Manufacturer
SpaceX/Seattle
Mission
Operational Commercial Communications
Bus & Motor
STARLINK, Unknown motor
Mass
260 kg wet, ~248 kg dry
Launch date (UTC)
2020-03-18 (6 years ago)
Launch vehicle
FALCON 9
Launch site
Air Force Eastern Test Range (AFETR)
Object type
Payload
Rocket body
Debris
Shape & HBR
Box + 1 Pan, 10.1 m
Radar Cross Section
13.562 m², Large (>1 m²)

Expand to show TLE details & history
Last TLE update: 14 hours ago

TLE from 14 hours ago
0 STARLINK-1277
1 45369U 20019K   25340.92440741  .00002388  00000-0  17917-3 0  9993
2 45369  53.0542 223.6834 0001416  80.2996 279.8153 15.06395639315744
Epoch: 2025-12-06T22:11Z
TLE epoch observation values (Epoch: 2025-12-06T22:11:08.800Z)
Latitude
Longitude
174.95157°
Altitude
547.937 km
Speed
7.589 km/s
True Right ascension
14h 54m 44s
True Declination
0° 00' 00"
Sunlit
Object was in daylight at epoch
Visualization orbit readout
Latitude
Unknown
Longitude
Unknown
Altitude
Unknown
Speed
Unknown
Apparent Right ascension
Unknown
Apparent Declination
Unknown
Sunlit
N/A
Visualization observer readout
Local Sidereal Time
10:02:57
Azimuth
Unknown
Elevation
Unknown
Doppler factor
Unknown
Orbital elements
Apogee altitude
548.476 km
Perigee altitude
546.515 km
Semi-major axis
6,925.633 km
Eccentricity
0.00014
Inclination
53.0542°
RAAN
223.6834°
Arg. of periapsis
80.2996°
True anomaly
279.79931°
Mean anomaly
279.8153°
Eccentric anomaly
279.80731°
Mean motion
3.76577 °/min
Orbital period
95.6 mins
BSTAR
0.00017917
Loading maneuver chart data...
Computing Atmospheric mass density...
Loading historical data...
Loading historical data...
Loading historical data...
Loading historical data...
Loading historical data...
Loading historical data...
Loading historical data...

Documentation

Showing up to 5 results
|